Home > Weather > Kingston > Past weeks

Flag for Canada Weather for the Past 2 Weeks in Kingston, Ontario, Canada

Now
54 °F

Overcast.


Feels Like: 51 °F
Forecast: 35 / 53 °F
Wind: 9 mph from Northeast

Location: Kingston

Current Time: Apr 29, 2016 at 4:23:06 PM

Latest Report: Apr 29, 2016 at 4:00 PM


Visibility: 15 mi

Pressure: 30.07 "Hg

Humidity: 33%

Dew Point: 25 °F

Location of KingstonLocation

Historic Weather in Kingston — Graph

°F

Kingston Temperature Yesterday

Maximum temperature yesterday: 48 °F (at 3:00 PM)
Minimum temperature yesterday: 30 °F (at 6:00 AM)
Average temperature yesterday: 43 °F

High & Low Weather Summary for the Past Weeks

 TemperatureHumidityPressure
High64 °F (Apr 16, 4:00 PM)94% (Apr 22, 7:00 AM)30.52 "Hg (Apr 22, 7:00 AM)
Low30 °F (Apr 27, 6:00 AM)21% (Apr 23, 4:00 PM)29.78 "Hg (Apr 26, 8:00 AM)
Average48 °F48%30.16 "Hg
* Reported Apr 14 3:00 PM — Apr 29 3:00 PM, Kingston, Weather by CustomWeather, © 2016

Note: Actual official high and low records may vary slightly from our data, if they occured in-between our weather recording intervals... More about our weather records

Advertising

Kingston Weather History for the Previous 24 Hours

Scroll right to see more
 ConditionsComfort  
Time TempWeatherWind HumidityBarometerVisibility
3:00 PM
Fri, Apr 29
55 °FOvercast.10 mph31%30.09 "Hg15 mi
2:00 PM54 °FPartly sunny.8 mph30%30.08 "Hg15 mi
1:00 PM54 °FPartly sunny.10 mph33%30.09 "Hg15 mi
12:00 PM52 °FPartly sunny.12 mph38%30.11 "Hg15 mi
11:00 AM48 °FPartly sunny.12 mph40%30.13 "Hg15 mi
10:00 AM46 °FPartly sunny.14 mph40%30.12 "Hg15 mi
9:00 AM43 °FPartly sunny.14 mph39%30.13 "Hg15 mi
8:00 AM39 °FPartly sunny.16 mph45%30.13 "Hg15 mi
7:00 AM37 °FPartly sunny.15 mph45%30.11 "Hg15 mi
6:00 AM37 °FPassing clouds.13 mph45%30.10 "Hg15 mi
11:00 PM
Thu, Apr 28
39 °FPassing clouds.7 mph48%30.13 "Hg15 mi
10:00 PM41 °FPassing clouds.9 mph45%30.13 "Hg15 mi
9:00 PM43 °FPartly sunny.9 mph39%30.12 "Hg15 mi
8:00 PM46 °FPartly sunny.10 mph37%30.10 "Hg15 mi
7:00 PM46 °FBroken clouds.3 mph40%30.09 "Hg15 mi
6:00 PM48 °FPartly sunny.6 mph37%30.09 "Hg15 mi
5:00 PM48 °FPartly sunny.7 mph40%30.07 "Hg15 mi
4:00 PM48 °FBroken clouds.5 mph40%30.07 "Hg15 mi
Weather by CustomWeather, © 2016

See weather overviewHow to use our weather pages